DW8692 Weather Reports


time (UTC)temp
F
wind
direction
speed
knots
gust
knots
rain 1hr
in
rain 24hr
in
rain mn
in
humidity
%
barometer
mb
20260507155535 56 72 0.9 0.0 0.00 0.00 0.00 26 1012.0
20260507155035 55 90 0.9 0.0 0.00 0.00 0.00 26 1012.0
20260507154540 55 85 0.9 0.0 0.00 0.00 0.00 26 1012.1
20260507153534 55 88 0.9 0.0 0.00 0.00 0.00 26 1012.1
20260507153034 55 110 0.9 0.0 0.00 0.00 0.00 26 1012.1
20260507152537 55 82 0.0 0.0 0.00 0.00 0.00 26 1012.1
20260507152033 54 121 0.9 0.0 0.00 0.00 0.00 27 1012.1
20260507151533 53 125 1.7 0.0 0.00 0.00 0.00 27 1012.1
20260507151032 53 111 1.7 0.0 0.00 0.00 0.00 28 1012.1
20260507150533 53 185 0.9 0.0 0.00 0.00 0.00 26 1012.1
20260507150032 53 186 0.0 0.0 0.00 0.00 0.00 26 1012.2
20260507145532 52 186 0.0 0.0 0.00 0.00 0.00 26 1012.2
20260507145031 52 186 0.9 0.0 0.00 0.00 0.00 27 1012.2
20260507144534 52 198 0.9 0.0 0.00 0.00 0.00 28 1012.2
20260507143531 52 199 0.9 0.0 0.00 0.00 0.00 29 1012.2
20260507143031 51 196 0.9 0.0 0.00 0.00 0.00 28 1012.3
20260507142532 51 198 0.9 0.0 0.00 0.00 0.00 29 1012.3
20260507142031 51 171 0.9 0.0 0.00 0.00 0.00 30 1012.3
20260507141531 51 155 0.0 0.0 0.00 0.00 0.00 30 1012.3
20260507141034 50 102 0.0 0.0 0.00 0.00 0.00 32 1012.2
20260507140531 49 102 0.0 0.0 0.00 0.00 0.00 32 1012.3
20260507140030 48 103 0.0 0.0 0.00 0.00 0.00 34 1012.3
20260507135530 47 103 0.0 0.0 0.00 0.00 0.00 35 1012.3
20260507135030 46 104 0.0 0.0 0.00 0.00 0.00 36 1012.2
20260507134530 44 104 0.0 0.0 0.00 0.00 0.00 36 1012.3
20260507133534 42 101 0.0 0.0 0.00 0.00 0.00 38 1012.3
20260507133030 41 104 0.0 0.0 0.00 0.00 0.00 38 1012.3
20260507132534 40 104 0.0 0.0 0.00 0.00 0.00 39 1012.3
20260507132030 39 104 0.0 0.0 0.00 0.00 0.00 40 1012.5
20260507131534 39 104 0.0 0.0 0.00 0.00 0.00 42 1012.5
20260507131032 38 104 0.0 0.0 0.00 0.00 0.00 44 1012.5
20260507130532 37 104 0.0 0.0 0.00 0.00 0.00 47 1012.5
20260507130029 36 104 0.0 0.0 0.00 0.00 0.00 50 1012.5
20260507125532 35 104 0.0 0.0 0.00 0.00 0.00 50 1012.5
20260507125029 34 104 0.0 0.0 0.00 0.00 0.00 51 1012.4
20260507124528 33 98 0.0 0.0 0.00 0.00 0.00 51 1012.4
20260507123527 31 100 0.0 0.0 0.00 0.00 0.00 51 1012.3
20260507123030 30 100 0.0 0.0 0.00 0.00 0.00 51 1012.3
20260507122527 30 94 0.0 0.0 0.00 0.00 0.00 50 1012.2
20260507122027 29 94 0.0 0.0 0.00 0.00 0.00 51 1012.2
20260507121527 29 94 0.0 0.0 0.00 0.00 0.00 52 1012.2
20260507121027 29 94 0.0 0.0 0.00 0.00 0.00 52 1012.1
20260507120525 28 94 0.0 0.0 0.00 0.00 0.00 53 1012.1
20260507120039 28 94 0.0 0.0 0.00 0.00 0.00 53 1012.1
20260507115526 27 94 0.0 0.0 0.00 0.00 0.00 53 1012.1
20260507115025 27 94 0.0 0.0 0.00 0.00 0.00 53 1012.1
20260507114526 27 94 0.0 0.0 0.00 0.00 0.00 53 1012.1
20260507113526 26 95 0.0 0.0 0.00 0.00 0.00 55 1012.1
20260507113038 26 94 0.0 0.0 0.00 0.00 0.00 54 1012.0
20260507112525 26 94 0.0 0.0 0.00 0.00 0.00 53 1012.0
20260507112025 27 94 0.0 0.0 0.00 0.00 0.00 54 1012.1
20260507111525 27 94 0.0 0.0 0.00 0.00 0.00 54 1012.1
20260507111026 26 94 0.0 0.0 0.00 0.00 0.00 54 1012.1
20260507110528 26 94 0.0 0.0 0.00 0.00 0.00 54 1012.1
20260507110027 26 94 0.0 0.0 0.00 0.00 0.00 53 1012.0
20260507105524 26 94 0.0 0.0 0.00 0.00 0.00 52 1012.0
20260507105024 27 94 0.0 0.0 0.00 0.00 0.00 53 1012.1
20260507104524 26 94 0.0 0.0 0.00 0.00 0.00 53 1012.1
20260507103523 27 94 0.0 0.0 0.00 0.00 0.00 51 1012.0
20260507103021 27 94 0.0 0.0 0.00 0.00 0.00 51 1012.1
20260507102522 28 94 0.0 0.0 0.00 0.00 0.00 50 1012.1
20260507102021 28 94 0.0 0.0 0.00 0.00 0.00 50 1012.0
20260507101521 28 94 0.0 0.0 0.00 0.00 0.00 51 1012.0
20260507101020 27 94 0.0 0.0 0.00 0.00 0.00 51 1012.0
20260507100520 28 94 0.0 0.0 0.00 0.00 0.00 50 1012.0
20260507100025 28 94 0.0 0.0 0.00 0.00 0.00 49 1012.0
20260507095520 29 94 0.0 0.0 0.00 0.00 0.00 49 1011.9
20260507095019 28 94 0.0 0.0 0.00 0.00 0.00 50 1011.9
20260507094519 28 94 0.0 0.0 0.00 0.00 0.00 50 1012.0
20260507093522 28 94 0.0 0.0 0.00 0.00 0.00 50 1011.9
20260507093018 28 94 0.0 0.0 0.00 0.00 0.00 50 1011.9
20260507092517 28 94 0.0 0.0 0.00 0.00 0.00 49 1012.0
20260507092018 29 94 0.0 0.0 0.00 0.00 0.00 48 1012.0
20260507091521 30 94 0.0 0.0 0.00 0.00 0.00 47 1012.0
20260507091017 30 94 0.0 0.0 0.00 0.00 0.00 48 1012.0
20260507090516 29 94 0.0 0.0 0.00 0.00 0.00 48 1012.0
20260507090015 29 94 0.0 0.0 0.00 0.00 0.00 47 1012.0
20260507085514 29 94 0.0 0.0 0.00 0.00 0.00 47 1011.9
20260507085014 30 94 0.0 0.0 0.00 0.00 0.00 46 1012.0
20260507084513 31 94 0.0 0.0 0.00 0.00 0.00 46 1012.0
20260507083511 31 94 0.0 0.0 0.00 0.00 0.00 45 1012.0
20260507083011 32 94 0.0 0.0 0.00 0.00 0.00 44 1012.0
20260507082517 32 94 0.0 0.0 0.00 0.00 0.00 43 1012.0
20260507082010 33 94 0.0 0.0 0.00 0.00 0.00 43 1012.0
20260507081511 34 94 0.0 0.0 0.00 0.00 0.00 42 1012.1
20260507081011 34 94 0.0 0.0 0.00 0.00 0.00 42 1012.1
20260507080511 33 94 0.0 0.0 0.00 0.00 0.00 43 1012.1
20260507080010 32 94 0.0 0.0 0.00 0.00 0.00 44 1012.1
20260507075510 32 94 0.0 0.0 0.00 0.00 0.00 44 1012.1
20260507075010 32 94 0.0 0.0 0.00 0.00 0.00 45 1012.1
20260507074513 32 94 0.0 0.0 0.00 0.00 0.00 44 1012.1
20260507073510 32 94 0.0 0.0 0.00 0.00 0.00 45 1012.1
20260507073010 31 94 0.0 0.0 0.00 0.00 0.00 45 1012.2
20260507072509 31 94 0.0 0.0 0.00 0.00 0.00 44 1012.0
20260507072009 31 94 0.0 0.0 0.00 0.00 0.00 44 1012.1
20260507071507 32 94 0.0 0.0 0.00 0.00 0.00 43 1012.1
20260507071007 32 94 0.0 0.0 0.00 0.00 0.00 42 1012.0
20260507070506 32 360 0.0 0.0 0.00 0.00 0.00 42 1012.1
20260507070010 33 360 0.0 0.0 0.00 0.00 0.00 42 1012.1
20260507065507 33 94 0.0 0.0 0.00 0.00 0.00 43 1012.0
20260507065003 33 94 0.0 0.0 0.00 0.00 0.00 42 1012.1
20260507064503 33 94 0.0 0.0 0.00 0.00 0.00 42 1012.1
20260507063504 34 94 0.0 0.0 0.00 0.00 0.00 42 1012.2
20260507063004 34 94 0.0 0.0 0.00 0.00 0.00 42 1012.2
20260507062502 34 94 0.0 0.0 0.00 0.00 0.00 42 1012.2
20260507062003 34 94 0.0 0.0 0.00 0.00 0.00 42 1012.1
20260507061503 34 94 0.9 0.0 0.00 0.00 0.00 41 1012.1
20260507061006 34 94 0.9 0.0 0.00 0.00 0.00 41 1012.1
20260507060502 34 94 0.0 0.0 0.00 0.00 0.00 41 1012.1
20260507060002 34 92 0.0 0.0 0.00 0.00 0.00 42 1012.1
20260507055502 34 92 0.9 0.0 0.00 0.00 0.00 41 1012.1
20260507055000 35 92 0.9 0.0 0.00 0.00 0.00 40 1012.1
20260507054600 36 92 0.9 0.0 0.00 0.00 0.00 39 1012.2
20260507053600 37 91 0.9 0.0 0.00 0.00 0.00 36 1012.2
20260507053059 38 88 1.7 0.0 0.00 0.00 0.00 36 1012.2
20260507052559 38 88 2.6 0.0 0.00 0.00 0.00 36 1012.2
20260507052059 38 88 2.6 0.0 0.00 0.00 0.00 36 1012.2
20260507051559 38 88 2.6 0.0 0.00 0.00 0.00 36 1012.3
20260507051101 38 88 2.6 0.0 0.00 0.00 0.00 36 1012.3
20260507050558 38 87 2.6 0.0 0.00 0.00 0.00 36 1012.3
20260507050059 37 84 2.6 0.0 0.00 0.00 0.00 37 1012.4
20260507045558 36 78 1.7 0.0 0.00 0.00 0.00 37 1012.4
20260507045058 37 59 1.7 0.0 0.00 0.00 0.00 35 1012.4
20260507044600 38 59 1.7 0.0 0.00 0.00 0.00 35 1012.4
20260507043558 37 59 1.7 0.0 0.00 0.00 0.00 36 1012.5
20260507043058 36 56 1.7 0.0 0.00 0.00 0.00 37 1012.5
20260507042558 36 54 2.6 0.0 0.00 0.00 0.00 37 1012.5
20260507042101 36 54 2.6 0.0 0.00 0.00 0.00 37 1012.6
20260507041601 37 54 2.6 0.0 0.00 0.00 0.00 38 1012.6
20260507041057 36 55 3.5 0.0 0.00 0.00 0.00 39 1012.6
20260507040557 35 360 1.7 0.0 0.00 0.00 0.00 41 1012.5
20260507040105 33 360 0.0 0.0 0.00 0.00 0.00 36 1012.6
20260507035553 34 285 0.0 0.0 0.00 0.00 0.00 39 1012.4
20260507035052 35 360 0.0 0.0 0.00 0.00 0.00 39 1012.4
20260507034612 35 285 0.0 0.0 0.00 0.00 0.00 38 1012.4
20260507033551 36 285 0.0 0.0 0.00 0.00 0.00 37 1012.5
20260507033104 36 285 0.0 0.0 0.00 0.00 0.00 38 1012.6
20260507032552 36 285 0.0 0.0 0.00 0.00 0.00 37 1012.5
20260507032049 37 285 0.0 0.0 0.00 0.00 0.00 37 1012.5
20260507031547 37 285 0.0 0.0 0.00 0.00 0.00 36 1012.5
20260507031046 38 285 0.0 0.0 0.00 0.00 0.00 35 1012.6
20260507030546 38 285 0.0 0.0 0.00 0.00 0.00 34 1012.6
20260507030044 39 285 0.0 0.0 0.00 0.00 0.00 34 1012.6
20260507025542 40 285 0.0 0.0 0.00 0.00 0.00 34 1012.6
20260507025041 40 285 0.0 0.0 0.00 0.00 0.00 34 1012.6
20260507024551 41 285 0.0 0.0 0.00 0.00 0.00 33 1012.6
20260507023542 43 284 0.0 0.0 0.00 0.00 0.00 31 1012.6
20260507023036 43 284 0.0 0.0 0.00 0.00 0.00 30 1012.6
20260507022535 44 285 0.0 0.0 0.00 0.00 0.00 30 1012.6
20260507022035 45 360 0.0 0.0 0.00 0.00 0.00 29 1012.6
20260507021533 47 285 0.9 0.0 0.00 0.00 0.00 28 1012.7
20260507021034 48 285 1.7 0.0 0.00 0.00 0.00 27 1012.6
20260507020530 48 289 0.9 0.0 0.00 0.00 0.00 27 1012.6
20260507020032 49 290 0.0 0.0 0.00 0.00 0.00 27 1012.6
20260507015527 50 290 0.0 0.0 0.00 0.00 0.00 26 1012.7
20260507015026 50 290 0.9 0.0 0.00 0.00 0.00 26 1012.7
20260507014526 50 290 1.7 0.0 0.00 0.00 0.00 26 1012.7
20260507013524 51 290 2.6 0.0 0.00 0.00 0.00 25 1012.8
20260507013023 52 281 3.5 0.0 0.00 0.00 0.00 25 1012.8
20260507012523 52 279 2.6 0.0 0.00 0.00 0.00 24 1012.9
20260507012021 52 290 2.6 0.0 0.00 0.00 0.00 24 1012.9
20260507011521 53 297 2.6 0.0 0.00 0.00 0.00 24 1012.8
20260507011021 53 294 3.5 0.0 0.00 0.00 0.00 23 1012.9
20260507010523 53 269 3.5 0.0 0.00 0.00 0.00 23 1012.8
20260507010029 53 293 3.5 0.0 0.00 0.00 0.00 23 1012.9
20260507005521 53 300 4.3 0.0 0.00 0.00 0.00 23 1012.9
20260507005018 53 280 4.3 0.0 0.00 0.00 0.00 23 1012.9
20260507004517 53 288 5.2 0.0 0.00 0.00 0.00 23 1013.0
20260507003518 54 279 4.3 0.0 0.00 0.00 0.00 23 1013.1
20260507003017 54 321 4.3 0.0 0.00 0.00 0.00 23 1013.1
20260507002516 54 311 5.2 0.0 0.00 0.00 0.00 23 1013.1
20260507002015 54 323 5.2 0.0 0.00 0.00 0.00 22 1013.2
20260507001516 54 286 4.3 0.0 0.00 0.00 0.00 23 1013.2
20260507001014 54 254 3.5 0.0 0.00 0.00 0.00 23 1013.2
20260507000514 54 314 3.5 0.0 0.00 0.00 0.00 23 1013.3
20260507000013 54 302 5.2 0.0 0.00 0.00 0.00 23 1013.5
20260506235513 54 293 6.1 0.0 0.00 0.00 0.00 23 1013.4
20260506235016 54 257 6.1 0.0 0.00 0.00 0.00 21 1013.4
20260506234520 54 263 4.3 0.0 0.00 0.00 0.00 22 1013.4
20260506233511 54 274 4.3 0.0 0.00 0.00 0.00 23 1013.5
20260506233011 54 300 5.2 0.0 0.00 0.00 0.00 22 1013.7
20260506232509 54 273 4.3 0.0 0.00 0.00 0.00 23 1013.6
20260506232009 54 302 5.2 0.0 0.00 0.00 0.00 23 1013.6
20260506231508 54 304 6.1 0.0 0.00 0.00 0.00 22 1013.7
20260506231008 54 273 6.1 0.0 0.00 0.00 0.00 22 1013.8
20260506230509 54 288 5.2 0.0 0.00 0.00 0.00 22 1013.7
20260506230007 54 330 4.3 0.0 0.00 0.00 0.00 22 1013.7
20260506225508 54 313 4.3 0.0 0.00 0.00 0.00 23 1013.8
20260506225007 54 250 6.1 0.0 0.00 0.00 0.00 22 1013.9
20260506224521 54 276 5.2 0.0 0.00 0.00 0.00 22 1014.0
20260506223507 54 331 3.5 0.0 0.00 0.00 0.00 23 1014.0
20260506223005 54 269 5.2 0.0 0.00 0.00 0.00 23 1014.1
20260506222505 54 271 7.0 0.0 0.00 0.00 0.00 22 1014.2
20260506222005 54 248 7.0 0.0 0.00 0.00 0.00 22 1014.2
20260506221504 54 270 6.1 0.0 0.00 0.00 0.00 22 1014.2
20260506221005 55 272 5.2 0.0 0.00 0.00 0.00 22 1014.3
20260506220502 54 249 5.2 0.0 0.00 0.00 0.00 23 1014.4
20260506220002 54 257 5.2 0.0 0.00 0.00 0.00 22 1014.4
20260506215501 54 318 6.1 0.0 0.00 0.00 0.00 23 1014.5
20260506215001 54 264 6.1 0.0 0.00 0.00 0.00 23 1014.6
20260506214501 53 313 6.1 0.0 0.00 0.00 0.00 23 1014.6
20260506213603 54 265 7.0 0.0 0.00 0.00 0.00 23 1014.8
20260506213059 54 311 6.1 0.0 0.00 0.00 0.00 22 1014.9
20260506212557 54 262 5.2 0.0 0.00 0.00 0.00 24 1014.9
20260506212057 52 284 5.2 0.0 0.00 0.00 0.00 25 1015.0
20260506211558 52 12 5.2 0.0 0.00 0.00 0.00 24 1015.1
20260506211055 52 21 7.0 0.0 0.00 0.00 0.00 24 1015.2
20260506210555 53 278 7.8 0.0 0.00 0.00 0.00 23 1015.3
20260506210054 53 355 7.8 0.0 0.00 0.00 0.00 23 1015.4
20260506205553 53 311 6.1 0.0 0.00 0.00 0.00 24 1015.4
20260506205052 52 329 6.1 0.0 0.00 0.00 0.00 24 1015.5
20260506204552 52 314 6.1 0.0 0.00 0.00 0.00 25 1015.7
20260506203554 52 275 6.1 0.0 0.00 0.00 0.00 24 1015.8
20260506203058 52 291 5.2 0.0 0.00 0.00 0.00 24 1015.8
20260506202550 52 296 4.3 0.0 0.00 0.00 0.00 24 1015.9
20260506202049 51 305 6.1 0.0 0.00 0.00 0.00 25 1016.0
20260506201549 51 322 7.0 0.0 0.00 0.00 0.00 24 1016.0
20260506201048 51 312 6.1 0.0 0.00 0.00 0.00 25 1016.1
20260506200551 51 344 7.0 0.0 0.00 0.00 0.00 24 1016.2
20260506200047 51 9 7.0 0.0 0.00 0.00 0.00 24 1016.3
20260506195546 52 298 5.2 0.0 0.00 0.00 0.00 24 1016.3
20260506195046 51 313 4.3 0.0 0.00 0.00 0.00 25 1016.5
20260506194546 51 252 6.1 0.0 0.00 0.00 0.00 24 1016.5
20260506193543 51 271 4.3 0.0 0.00 0.00 0.00 25 1016.6
20260506193049 50 343 3.5 0.0 0.00 0.00 0.00 25 1016.8
20260506192540 51 277 6.1 0.0 0.00 0.00 0.00 25 1017.0
20260506192043 50 275 7.0 0.0 0.00 0.00 0.00 25 1017.0
20260506191539 50 269 6.1 0.0 0.00 0.00 0.00 26 1017.0
20260506191040 50 24 6.1 0.0 0.00 0.00 0.00 25 1017.1
20260506190540 50 290 6.1 0.0 0.00 0.00 0.00 25 1017.2
20260506190038 50 238 5.2 0.0 0.00 0.00 0.00 25 1017.3
20260506185537 50 303 5.2 0.0 0.00 0.00 0.00 26 1017.4
20260506185036 50 277 5.2 0.0 0.00 0.00 0.00 26 1017.5
20260506184537 49 286 6.1 0.0 0.00 0.00 0.00 26 1017.5
20260506183538 49 325 7.8 0.0 0.00 0.00 0.00 26 1017.7
20260506183040 49 286 7.0 0.0 0.00 0.00 0.00 25 1017.8
20260506182534 48 313 6.1 0.0 0.00 0.00 0.00 26 1017.9
20260506182034 48 350 7.0 0.0 0.00 0.00 0.00 26 1018.0
20260506181543 48 295 6.1 0.0 0.00 0.00 0.00 26 1018.1
20260506181035 48 265 4.3 0.0 0.00 0.00 0.00 26 1018.3
20260506180534 49 251 5.2 0.0 0.00 0.00 0.00 26 1018.5
20260506180033 48 269 5.2 0.0 0.00 0.00 0.00 26 1018.5
20260506175531 47 329 5.2 0.0 0.00 0.00 0.00 27 1018.4
20260506175031 47 284 6.1 0.0 0.00 0.00 0.00 26 1018.6
20260506174531 47 302 6.1 0.0 0.00 0.00 0.00 26 1018.7
20260506173531 47 269 6.1 0.0 0.00 0.00 0.00 28 1018.8
20260506173038 47 312 6.1 0.0 0.00 0.00 0.00 26 1018.9
20260506172530 47 275 5.2 0.0 0.00 0.00 0.00 28 1018.8
20260506172029 47 289 5.2 0.0 0.00 0.00 0.00 28 1019.0
20260506171529 47 284 5.2 0.0 0.00 0.00 0.00 29 1019.1
20260506171029 46 348 5.2 0.0 0.00 0.00 0.00 29 1019.1
20260506170528 46 264 5.2 0.0 0.00 0.00 0.00 28 1019.2
20260506170027 46 271 5.2 0.0 0.00 0.00 0.00 29 1019.4
20260506165527 46 311 5.2 0.0 0.00 0.00 0.00 31 1019.4
20260506165026 45 257 6.1 0.0 0.00 0.00 0.00 31 1019.5
20260506164527 45 298 5.2 0.0 0.00 0.00 0.00 30 1019.6
20260506163525 45 299 5.2 0.0 0.00 0.00 0.00 32 1019.7
20260506163024 44 316 5.2 0.0 0.00 0.00 0.00 33 1019.7
20260506162525 44 291 5.2 0.0 0.00 0.00 0.00 32 1019.7
20260506162024 44 231 5.2 0.0 0.00 0.00 0.00 32 1019.8
20260506161524 44 258 4.3 0.0 0.00 0.00 0.00 32 1019.9
20260506161024 44 292 5.2 0.0 0.00 0.00 0.00 35 1019.9
20260506160523 43 310 5.2 0.0 0.00 0.00 0.00 33 1019.9
20260506160034 44 285 4.3 0.0 0.00 0.00 0.00 34 1020.0